Weather History for Bloomington, IN

Change the Weather History Date:

Tuesday, February 5, 2013

  Actual Average Record
Temperature  
Mean Temperature 30 °F 31 °F  
Max Temperature 39 °F 40 °F 64 °F (2008)
Min Temperature 20 °F 21 °F -9 °F (2009)
Degree Days  
Heating Degree Days 35 34  
Month to date heating degree days 217 172  
Since 1 July heating degree days 3261 3347  
Cooling Degree Days 0 0  
Month to date cooling degree days 0 0  
Year to date cooling degree days 0 0  
Moisture  
Dew Point 23 °F    
Average Humidity 78    
Maximum Humidity 92    
Minimum Humidity 64    
Precipitation  
Precipitation 0.00 in 0.11 in 2.24 in (2008)
Month to date precipitation 0.09 0.51  
Year to date precipitation 5.55 3.82  
Sea Level Pressure  
Sea Level Pressure 29.93 in    
Wind  
Wind Speed 5 mph (WSW)    
Max Wind Speed 17 mph    
Max Gust Speed 22 mph    
Visibility 5 miles    
Events      
T = Trace of Precipitation, MM = Missing Value Source: NWS Daily Summary

Daily Weather History Graph

Daily Weather History Graph

Search for Another Location

Airport:

Trip Planner

Search our weather history database for the weather conditions in past years. The results will help you decide how hot, cold, wet, or windy it might be!

Date:

Astronomy

Feb. 05, 2013 Rise Set
Actual Time 7:49 AM EST 6:12 PM EST
Civil Twilight 7:21 AM EST 6:40 PM EST
Nautical Twilight 6:49 AM EST 7:12 PM EST
Astronomical Twilight 6:18 AM EST 7:43 PM EST
Moon 3:29 AM EST (2/5) 1:30 PM EST (2/5)
Length of Visible Light 11h 19m
Length of Day
10h 23m
Waning Crescent, 27% of the Moon is Illuminated
Feb 5
Waning Crescent
Feb 10
New
Feb 17
First Quarter
Feb 25
Full
Mar 4
Last Quarter

Hourly Weather History & Observations

Time (EST) Temp. Windchill Dew Point Humidity Pressure Visibility Wind Dir Wind Speed Gust Speed Precip Events Conditions
12:53 AM 30.0 °F - 25.0 °F 82% 29.91 in 7.0 mi Calm Calm - N/A   Clear
1:53 AM 30.0 °F 25.2 °F 24.1 °F 79% 29.90 in 7.0 mi NNW 4.6 mph - N/A   Clear
2:53 AM 28.9 °F - 24.1 °F 82% 29.92 in 7.0 mi Calm Calm - N/A   Clear
3:53 AM 27.0 °F - 21.9 °F 81% 29.91 in 6.0 mi Calm Calm - N/A   Haze
4:30 AM 23.0 °F - 19.4 °F 86% 29.88 in 4.0 mi Calm Calm - N/A   Partly Cloudy
4:53 AM 24.1 °F - 19.9 °F 84% 29.91 in 3.0 mi Calm Calm - N/A   Partly Cloudy
5:06 AM 24.8 °F - 19.4 °F 80% 29.89 in 2.5 mi Calm Calm - N/A   Partly Cloudy
5:42 AM 21.2 °F - 17.6 °F 86% 29.90 in 1.8 mi Calm Calm - N/A   Partly Cloudy
5:51 AM 21.2 °F - 17.6 °F 86% 29.91 in 2.0 mi Calm Calm - N/A   Mostly Cloudy
5:53 AM 21.9 °F - 19.0 °F 89% 29.93 in 2.5 mi Calm Calm - N/A   Mostly Cloudy
6:12 AM 24.8 °F - 21.2 °F 86% 29.90 in 3.0 mi Calm Calm - N/A   Overcast
6:32 AM 23.0 °F - 19.4 °F 86% 29.90 in 2.5 mi Calm Calm - N/A   Scattered Clouds
6:41 AM 21.2 °F - 19.4 °F 93% 29.90 in 2.0 mi Calm Calm - N/A   Mostly Cloudy
6:53 AM 21.0 °F - 18.0 °F 88% 29.93 in 2.5 mi Calm Calm - N/A   Mostly Cloudy
7:20 AM 19.4 °F - 17.6 °F 93% 29.92 in 3.0 mi Calm Calm - N/A   Overcast
7:29 AM 21.2 °F - 17.6 °F 86% 29.92 in 2.5 mi Calm Calm - N/A   Mostly Cloudy
7:41 AM 21.2 °F - 19.4 °F 93% 29.92 in 2.5 mi Calm Calm - N/A   Mostly Cloudy
7:53 AM 21.0 °F - 18.0 °F 88% 29.96 in 2.0 mi Calm Calm - N/A   Partly Cloudy
8:02 AM 21.2 °F - 17.6 °F 86% 29.93 in 1.5 mi Calm Calm - N/A   Partly Cloudy
8:17 AM 21.2 °F 16.4 °F 19.4 °F 93% 29.93 in 1.5 mi South 3.5 mph - N/A   Partly Cloudy
8:53 AM 24.1 °F - 21.9 °F 91% 29.95 in 1.8 mi Calm Calm - N/A   Clear
9:04 AM 24.8 °F - 23.0 °F 93% 29.93 in 2.0 mi Calm Calm - N/A   Clear
9:38 AM 28.4 °F 23.3 °F 24.8 °F 86% 29.94 in 3.0 mi SW 4.6 mph - N/A   Clear
9:53 AM 28.0 °F - 24.1 °F 85% 29.97 in 3.0 mi Calm Calm - N/A   Mostly Cloudy
10:53 AM 30.0 °F 26.5 °F 25.0 °F 82% 29.97 in 4.0 mi SSW 3.5 mph - N/A   Haze
11:53 AM 32.0 °F 26.4 °F 25.0 °F 75% 29.94 in 6.0 mi SSW 5.8 mph - N/A   Haze
12:53 PM 34.0 °F 26.0 °F 26.1 °F 73% 29.91 in 7.0 mi SSW 10.4 mph - N/A   Mostly Cloudy
1:53 PM 35.1 °F 28.6 °F 25.0 °F 67% 29.90 in 9.0 mi SW 8.1 mph - N/A   Overcast
2:53 PM 36.0 °F 28.5 °F 27.0 °F 70% 29.89 in 8.0 mi SW 10.4 mph - N/A   Overcast
3:53 PM 37.9 °F 28.9 °F 28.0 °F 68% 29.87 in 8.0 mi SW 16.1 mph - N/A   Scattered Clouds
4:53 PM 39.0 °F 30.6 °F 30.0 °F 70% 29.88 in 8.0 mi WSW 15.0 mph 21.9 mph N/A   Scattered Clouds
5:53 PM 39.0 °F 32.8 °F 30.0 °F 70% 29.90 in 8.0 mi WSW 9.2 mph - N/A   Clear
6:53 PM 37.0 °F 33.3 °F 30.0 °F 76% 29.94 in 9.0 mi West 4.6 mph - N/A   Clear
7:53 PM 37.0 °F 34.5 °F 30.9 °F 79% 29.96 in 8.0 mi West 3.5 mph - N/A   Mostly Cloudy
8:53 PM 37.9 °F 32.7 °F 30.9 °F 76% 29.98 in 8.0 mi West 6.9 mph - N/A   Overcast
9:53 PM 39.0 °F 32.8 °F 30.9 °F 73% 30.00 in 7.0 mi WNW 9.2 mph - N/A   Overcast
10:14 PM 37.4 °F 32.1 °F 30.2 °F 75% 30.00 in 7.0 mi WNW 6.9 mph - N/A   Overcast
11:53 PM 37.0 °F 31.0 °F 28.0 °F 70% 30.05 in 10.0 mi NW 8.1 mph - N/A   Overcast